sat.trackr.live / text

‹ back to catalog

QUBE-II

NORAD 69023 · 2026-100AV

PAYLOAD ACTIVE UNKNOWN

§ Identity

Operator
Country
GER
Launch date
2026-05-03
Launch site
AFWTR
Launch vehicle
Mass (kg)
RCS (m²)

External: N2YO · Heavens-Above · Gunter

§ Orbital elements

Epoch: 2026-09-20T04:12:15.958944Z

Period
94.65 min
Inclination
97.3931°
Eccentricity
0.0004316
Mean motion
15.21444162 rev/d
Perigee alt
498.5 km
Apogee alt
504.5 km
Semi-major
6,879.6 km
B*
2.3451e-4
RAAN
159.3134°
Arg perigee
47.2957°
Mean anomaly
312.8641°
Rev number
2,124

§ Raw data

QUBE-II1 69023U 26100AV  26263.17518471  .00005200  00000+0  23451-3 0  99962 69023  97.3931 159.3134 0004316  47.2957 312.8641 15.21444162 21242

JSON: /api/v1/satellites/69023 · /tle

For live sub-satellite position, see the globe view (requires WebGL).

§ Visibility from observer

Set your observer location to see the next 7 days of passes ≥ 10°. The values pass through the URL so the page stays shareable.

No JS? Fill the form by hand. The geolocation button needs JavaScript.